[[{"header":{"parameterUnit":"m.s-1","parameterCategory":1,"la1":30.2992,"la2":30.254,"lo1":-89.0895,"lo2":-89.0443,"dy":0.0025,"dx":0.0025,"nx":19,"ny":19,"refTime":"2026-05-19T03:00:00:Z","depth":0,"parameterNumber":2,"parameterNumberName":"U-component_of_WINDS"},"data":[0,0,0,-1.6513,-1.6512,-1.6449,-1.6448,-1.6381,-1.638,0,0,0,0,0,0,0,0,0,0,0,-1.6542,-1.6542,-1.6513,-1.6512,-1.6449,-1.6448,-1.6381,-1.638,0,0,0,0,0,0,0,0,0,0,0,-1.6542,-1.6542,-1.6542,-1.6512,-1.6449,-1.6448,-1.6381,-1.6423,0,0,0,0,0,0,0,0,0,0,-1.6482,-1.6519,-1.6542,-1.6542,-1.6512,-1.6449,-1.6448,-1.6425,-1.6421,-1.6416,0,-1.6416,0,-1.6397,-1.6377,-1.6376,0,0,0,-1.6504,-1.6523,-1.6497,-1.6542,-1.6511,-1.6449,-1.6475,-1.6422,-1.6417,-1.641,-1.6415,-1.6412,-1.6396,-1.6376,-1.6376,-1.6381,-1.6381,0,0,-1.6507,-1.6536,-1.6501,-1.6495,-1.6508,-1.6477,-1.6473,-1.6419,-1.6425,-1.6414,-1.641,-1.6395,-1.6376,-1.6376,-1.638,-1.6381,0,0,0,-1.6523,-1.6538,-1.6513,-1.6498,-1.6486,-1.6475,-1.6471,-1.6428,-1.6417,-1.6409,-1.6394,-1.6376,-1.6375,-1.638,-1.6381,-1.643,0,0,0,-1.6525,-1.6547,-1.6515,-1.6532,-1.6487,-1.6456,-1.6481,-1.6421,-1.6414,-1.6395,-1.6376,-1.6374,-1.6379,-1.638,-1.6427,-1.6448,0,0,0,-1.6543,-1.6549,-1.6544,-1.6534,-1.6508,-1.6457,-1.6443,-1.6419,-1.6406,-1.6376,-1.6374,-1.6379,-1.638,-1.6425,-1.6444,-1.6458,0,0,0,-1.657,-1.6587,-1.6545,-1.6559,-1.6509,-1.6488,-1.6443,-1.6426,-1.6406,-1.6375,-1.6379,-1.638,-1.6424,-1.6442,-1.6456,-1.6475,-1.6486,0,0,-1.6607,-1.6592,-1.6598,-1.6559,-1.6554,-1.6496,-1.6496,-1.6451,-1.642,-1.6395,-1.6395,-1.6428,-1.6444,-1.6457,-1.6536,-1.6545,0,0,0,-1.6619,-1.6624,-1.6616,-1.6601,-1.6568,-1.6541,-1.6493,-1.6476,-1.6454,-1.6414,-1.6436,-1.6444,-1.6451,-1.6459,-1.6466,-1.647,-1.6385,-1.6385,-1.6385,-1.6712,-1.6675,-1.6682,-1.6638,-1.6623,-1.6574,-1.6558,-1.6527,-1.6492,-1.6498,-1.649,-1.6542,-1.6553,-1.6558,-1.6563,-1.6497,-1.6497,-1.6497,-1.6497,-1.6763,-1.6764,-1.6719,-1.671,-1.6671,-1.6662,-1.6615,-1.6591,-1.6576,-1.6544,-1.6549,-1.6518,-1.6569,-1.6571,-1.6501,-1.65,-1.65,-1.6499,-1.6499,-1.682,-1.6814,-1.6795,-1.677,-1.6754,-1.6708,-1.6697,-1.666,-1.6625,-1.6629,-1.6617,-1.6616,-1.6611,-1.6626,-1.6626,-1.6626,-1.6627,-1.6627,-1.6627,-1.6887,-1.6864,-1.686,-1.6828,-1.6814,-1.679,-1.6742,-1.6727,-1.67,-1.6674,-1.6673,-1.6638,-1.6581,-1.6568,-1.663,-1.6629,-1.6629,-1.6628,-1.6628,-1.6953,-1.6933,-1.6927,-1.6913,-1.6873,-1.686,-1.6814,-1.6786,-1.6767,-1.6763,-1.6727,-1.6691,-1.6672,-1.6666,-1.6655,-1.6735,-1.6735,-1.6735,-1.6735,-1.7002,-1.699,-1.6976,-1.6957,-1.6933,-1.6891,-1.6885,-1.6847,-1.6805,-1.6791,-1.6774,-1.6756,-1.6751,-1.6735,-1.6728,-1.6716,-1.6811,-1.6811,-1.6811,-1.7041,-1.7025,-1.7027,-1.6988,-1.6954,-1.6926,-1.6918,-1.6896,-1.6844,-1.6813,-1.678,-1.6776,-1.6747,-1.6739,-1.6708,-1.6697,-1.6675,0,0]},{"header":{"parameterUnit":"m.s-1","parameterCategory":1,"la1":30.2992,"la2":30.254,"lo1":-89.0895,"lo2":-89.0443,"dy":0.0025,"dx":0.0025,"nx":19,"ny":19,"refTime":"2026-05-19T03:00:00:Z","depth":0,"parameterNumber":3,"parameterNumberName":"V-component_of_WINDS"},"data":[0,0,0,2.5867,2.5867,2.5853,2.5853,2.5835,2.5835,0,0,0,0,0,0,0,0,0,0,0,2.5871,2.5871,2.5867,2.5867,2.5853,2.5853,2.5835,2.5835,0,0,0,0,0,0,0,0,0,0,0,2.5871,2.5871,2.5871,2.5866,2.5853,2.5853,2.5835,2.5845,0,0,0,0,0,0,0,0,0,0,2.5858,2.5863,2.5871,2.5871,2.5866,2.5853,2.5853,2.5846,2.5845,2.5841,0,2.5839,0,2.5837,2.5834,2.5834,0,0,0,2.5866,2.5864,2.586,2.5871,2.5866,2.5853,2.5859,2.5845,2.5844,2.584,2.5839,2.5838,2.5837,2.5834,2.5834,2.5819,2.5819,0,0,2.5867,2.5869,2.5861,2.586,2.5863,2.5859,2.5859,2.5845,2.5843,2.5839,2.5838,2.5836,2.5834,2.5834,2.5819,2.5819,0,0,0,2.5869,2.5869,2.5866,2.586,2.5858,2.5859,2.5858,2.5844,2.5843,2.5838,2.5836,2.5834,2.5833,2.5819,2.5819,2.5821,0,0,0,2.587,2.5871,2.5866,2.5867,2.5858,2.5851,2.5858,2.5844,2.5842,2.5836,2.5834,2.5833,2.5819,2.5819,2.5821,2.5821,0,0,0,2.5872,2.5871,2.587,2.5867,2.5862,2.5851,2.5849,2.5843,2.5841,2.5834,2.5833,2.582,2.5819,2.5821,2.5821,2.5818,0,0,0,2.5875,2.587,2.587,2.5863,2.5862,2.5852,2.5849,2.5841,2.5835,2.5834,2.5819,2.5819,2.5821,2.5821,2.5818,2.5816,2.5816,0,0,2.5869,2.5869,2.5865,2.5865,2.5856,2.5854,2.5845,2.5837,2.5833,2.5824,2.5824,2.5821,2.5821,2.5818,2.5812,2.5812,0,0,0,2.5864,2.5862,2.5859,2.5854,2.5849,2.5844,2.5837,2.5834,2.5826,2.5829,2.5819,2.5819,2.5817,2.5816,2.5816,2.5814,2.5819,2.5819,2.5819,2.586,2.5857,2.5851,2.5847,2.5842,2.5836,2.5832,2.5826,2.5824,2.5821,2.5819,2.5816,2.5814,2.5814,2.5813,2.5817,2.5817,2.5817,2.5817,2.5852,2.5848,2.5846,2.584,2.5837,2.5831,2.5825,2.5823,2.5817,2.5817,2.5815,2.5816,2.5814,2.5813,2.5817,2.5817,2.5817,2.5817,2.5817,2.5848,2.5846,2.5844,2.5837,2.5832,2.5828,2.5823,2.582,2.5817,2.5815,2.5812,2.5812,2.5812,2.5814,2.5814,2.5814,2.5814,2.5814,2.5814,2.5846,2.5843,2.5839,2.5834,2.5831,2.5827,2.5822,2.5818,2.5814,2.5812,2.5812,2.581,2.5815,2.5816,2.5814,2.5814,2.5814,2.5814,2.5814,2.5839,2.584,2.5834,2.5832,2.5826,2.5822,2.5819,2.5813,2.581,2.5807,2.5806,2.581,2.5808,2.5809,2.581,2.5806,2.5806,2.5806,2.5806,2.5836,2.5835,2.583,2.5826,2.5821,2.5818,2.5812,2.5808,2.5804,2.5802,2.5802,2.5803,2.5803,2.5802,2.5802,2.5803,2.5798,2.5798,2.5798,2.5831,2.5831,2.5826,2.5823,2.5819,2.5815,2.5809,2.5804,2.5799,2.5798,2.58,2.58,2.5802,2.5803,2.5801,2.5802,2.5803,0,0]}]]